This is the latest recevied weather packets stored in our database for station/object N3WXO-1. If no packets are shown the sender has not sent any weather packets the latest 1 day(s).
| Time | Temp. | Humidity | Pressure | Rain* | Wind** | Luminosity | Snow |
|---|---|---|---|---|---|---|---|
| 1778019313 | 26.11° C | 37% | 1007.3 hPa | 0 mm | - | 44 W/m² | - |
| 1778019028 | 26.11° C | 37% | 1007.1 hPa | 0 mm | - | 44 W/m² | - |
| 1778018121 | 26.11° C | 38% | 1006.9 hPa | 0 mm | - | 77 W/m² | - |
| 1778017522 | 26.11° C | 41% | 1007 hPa | 0 mm | - | 53 W/m² | - |
| 1778016628 | 26.11° C | 42% | 1007.1 hPa | 0 mm | - | 62 W/m² | - |
| 1778016321 | 26.11° C | 41% | 1007.2 hPa | 0 mm | - | 72 W/m² | - |
| 1778013027 | 28.33° C | 40% | 1007.1 hPa | 0 mm | - | 439 W/m² | - |
| 1778012421 | 28.33° C | 40% | 1007 hPa | 0 mm | - | 373 W/m² | - |
| 1778010314 | 27.78° C | 36% | 1007.3 hPa | 0 mm | - | 450 W/m² | - |
| 1778010021 | 27.22° C | 37% | 1007.4 hPa | 0 mm | - | 285 W/m² | - |
| 1778003722 | 27.22° C | 39% | 1008.4 hPa | 0 mm | - | 90 W/m² | - |
| 1778002524 | 26.67° C | 40% | 1008.8 hPa | 0 mm | - | 786 W/m² | - |
| 1778002215 | 26.11° C | 39% | 1008.7 hPa | 0 mm | - | 703 W/m² | - |
| 1778001922 | 26.11° C | 46% | 1008.7 hPa | 0 mm | - | 144 W/m² | - |
| 1778001629 | 25.56° C | 47% | 1008.8 hPa | 0 mm | - | 761 W/m² | - |
| 1778001321 | 25.56° C | 47% | 1008.9 hPa | 0 mm | - | 169 W/m² | - |
| 1777999817 | 26.11° C | 49% | 1008.9 hPa | 0 mm | - | 768 W/m² | - |
| 1777999219 | 25.56° C | 50% | 1009.2 hPa | 0 mm | - | 858 W/m² | - |
| 1777998915 | 25.56° C | 50% | 1009.4 hPa | 0 mm | - | 858 W/m² | - |
| 1777998322 | 25.56° C | 49% | 1009.6 hPa | 0 mm | - | 844 W/m² | - |
| 1777997716 | 25.56° C | 48% | 1009.7 hPa | 0 mm | - | 837 W/m² | - |
| 1777997424 | 25.56° C | 52% | 1009.8 hPa | 0 mm | - | 831 W/m² | - |
| 1777997133 | 25.56° C | 49% | 1009.8 hPa | 0 mm | - | 823 W/m² | - |
* Rain latest hour (hover to see other rain measurements)
** Current wind speed in m/s (hover to see current wind gust speed)